Historia de Miami, FL

Jueves, Enero 12, 2017 — View Current Conditions

Jump to Data:

Date:
Airport Code:
Recently Viewed Airport Codes: KMIA
Daily Summary
  Actual Average Record
Temperature
Temperatura media 76° F / 24° C 68° F / 20° C  
Temperatura máxima 81° F / 27° C 76° F / 24° C 83° F / 28° C (1971)
Temperatura mínima 70° F / 21° C 60° F / 16° C 33° F / 0° C (1982)
Degree Days
Grados día de calefacción 0 2  
Month to date heating degree days 24  
Since 1 July heating degree days 61  
Cooling Degree Days 10 5  
Month to date cooling degree days 60  
Year to date cooling degree days 60  
Growing Degree Days 26 (Base 50)    
Moisture
Punto de rocío 61° F / 16° C    
Average Humidity 58    
Maximum Humidity 68    
Minimum Humidity 44    
Precipitación
Precipitación 0.00 pul / 0.00 cm 0.05 pul / 1.27 cm 1.41 pul / 3.58 cm (1961)
Month to date precipitation 0.61  
Year to date precipitation 0.61  
Nieve
Nieve 0.00 pul / 0.00 cm pul / cm pul / cm ()
Month to date snowfall  
Since 1 July snowfall  
Grosos de nieve pul / cm    
Presión al nivel del mar
Presión al nivel del mar 30.29 pul / 1026 hPa    
Viento
Velocidad del viento 12 mph / 19 km/h (Este)    
Velocidad máxima del viento 17 mph / 27 km/h    
Max Gust Speed 22 mph / 35 km/h    
Visibilidad 10 Millas / 16 Kilómetros    
Eventos      
T = Trace of Precipitation, MM = Missing Value Source: NWS Daily Summary

Mostrar METARS completo

(help) - Comma Delimited File

Hourly Observations

Hora(EST) Temperatura Punto de rocío Humedad Presión al nivel del mar Visibilidad Dirección del viento Velocidad del viento Velocidad de ráfagas Precipitación Eventos Condiciones
12:53 AM 73.0° F / 22.8° C 59.0° F / 15.0° C 61% 30.26 pul / 1024.7 hPa 10.0 Millas / 16.1 Kilómetros Este 12.7 mph / 20.4 km/h - N/A   Nublado
1:53 AM 73.0° F / 22.8° C 60.1° F / 15.6° C 64% 30.26 pul / 1024.5 hPa 10.0 Millas / 16.1 Kilómetros Este 15.0 mph / 24.1 km/h - N/A   Nublado
2:53 AM 73.9° F / 23.3° C 59.0° F / 15.0° C 59% 30.25 pul / 1024.3 hPa 10.0 Millas / 16.1 Kilómetros Este 13.8 mph / 22.2 km/h - N/A   Muy nublado
3:53 AM 73.9° F / 23.3° C 61.0° F / 16.1° C 64% 30.25 pul / 1024.1 hPa 10.0 Millas / 16.1 Kilómetros Este 15.0 mph / 24.1 km/h - N/A   Muy nublado
4:53 AM 73.9° F / 23.3° C 61.0° F / 16.1° C 64% 30.25 pul / 1024.1 hPa 10.0 Millas / 16.1 Kilómetros ENE 9.2 mph / 14.8 km/h - N/A   Muy nublado
5:53 AM 73.9° F / 23.3° C 61.0° F / 16.1° C 64% 30.25 pul / 1024.4 hPa 10.0 Millas / 16.1 Kilómetros Este 9.2 mph / 14.8 km/h - N/A   Muy nublado
6:53 AM 73.9° F / 23.3° C 60.1° F / 15.6° C 62% 30.27 pul / 1024.8 hPa 10.0 Millas / 16.1 Kilómetros ESE 10.4 mph / 16.7 km/h - N/A   Muy nublado
7:53 AM 73.9° F / 23.3° C 60.1° F / 15.6° C 62% 30.29 pul / 1025.7 hPa 10.0 Millas / 16.1 Kilómetros Este 8.1 mph / 13.0 km/h - N/A   Muy nublado
8:53 AM 77.0° F / 25.0° C 61.0° F / 16.1° C 58% 30.31 pul / 1026.3 hPa 10.0 Millas / 16.1 Kilómetros Este 11.5 mph / 18.5 km/h - N/A   Parcialmente nublado
9:53 AM 77.0° F / 25.0° C 60.1° F / 15.6° C 56% 30.33 pul / 1026.9 hPa 10.0 Millas / 16.1 Kilómetros Este 12.7 mph / 20.4 km/h - N/A   Muy nublado
10:53 AM 80.1° F / 26.7° C 60.1° F / 15.6° C 50% 30.33 pul / 1026.9 hPa 10.0 Millas / 16.1 Kilómetros ESE 12.7 mph / 20.4 km/h - N/A   Muy nublado
11:53 AM 77.0° F / 25.0° C 62.1° F / 16.7° C 60% 30.32 pul / 1026.5 hPa 10.0 Millas / 16.1 Kilómetros ESE 15.0 mph / 24.1 km/h - N/A   Muy nublado
12:53 PM 80.1° F / 26.7° C 62.1° F / 16.7° C 54% 30.30 pul / 1025.8 hPa 10.0 Millas / 16.1 Kilómetros Este 17.3 mph / 27.8 km/h - 0.00 pul / 0.0 cm   Muy nublado
1:53 PM 79.0° F / 26.1° C 62.1° F / 16.7° C 56% 30.28 pul / 1025.3 hPa 10.0 Millas / 16.1 Kilómetros ENE 12.7 mph / 20.4 km/h - N/A   Muy nublado
2:53 PM 77.0° F / 25.0° C 62.1° F / 16.7° C 60% 30.27 pul / 1025.0 hPa 10.0 Millas / 16.1 Kilómetros Este 13.8 mph / 22.2 km/h - 0.00 pul / 0.0 cm   Muy nublado
3:53 PM 77.0° F / 25.0° C 62.1° F / 16.7° C 60% 30.27 pul / 1025.0 hPa 10.0 Millas / 16.1 Kilómetros Este 13.8 mph / 22.2 km/h 21.9 mph / 35.2 km/h N/A   Muy nublado
4:53 PM 78.1° F / 25.6° C 62.1° F / 16.7° C 58% 30.27 pul / 1025.1 hPa 10.0 Millas / 16.1 Kilómetros Este 12.7 mph / 20.4 km/h - N/A   Muy nublado
5:53 PM 75.9° F / 24.4° C 60.1° F / 15.6° C 58% 30.29 pul / 1025.5 hPa 10.0 Millas / 16.1 Kilómetros NE 10.4 mph / 16.7 km/h - 0.00 pul / 0.0 cm   Muy nublado
6:53 PM 75.0° F / 23.9° C 59.0° F / 15.0° C 57% 30.29 pul / 1025.7 hPa 10.0 Millas / 16.1 Kilómetros ENE 9.2 mph / 14.8 km/h - N/A   Nubes dispersas
7:53 PM 73.0° F / 22.8° C 57.9° F / 14.4° C 59% 30.30 pul / 1026.1 hPa 10.0 Millas / 16.1 Kilómetros Este 6.9 mph / 11.1 km/h - N/A   Parcialmente nublado
8:53 PM 73.9° F / 23.3° C 57.9° F / 14.4° C 57% 30.31 pul / 1026.2 hPa 10.0 Millas / 16.1 Kilómetros Este 9.2 mph / 14.8 km/h - N/A   Parcialmente nublado
9:53 PM 73.0° F / 22.8° C 61.0° F / 16.1° C 66% 30.31 pul / 1026.4 hPa 10.0 Millas / 16.1 Kilómetros Este 8.1 mph / 13.0 km/h - N/A   Nubes dispersas
10:53 PM 75.0° F / 23.9° C 62.1° F / 16.7° C 64% 30.30 pul / 1026.1 hPa 10.0 Millas / 16.1 Kilómetros Este 11.5 mph / 18.5 km/h - N/A   Nubes dispersas
11:53 PM 73.0° F / 22.8° C 62.1° F / 16.7° C 68% 30.30 pul / 1025.9 hPa 10.0 Millas / 16.1 Kilómetros Este 9.2 mph / 14.8 km/h - N/A   Parcialmente nublado